Wind_Speed
9 9 9 8 9 9 9 10 10 10 10 10 10 10 10 10 10 10 10 10 10 10 9 9 9 9 9 9 10 10 10 11 11 12 12 12 12 12 12 13 14 15 15
9 8 8 8 8 9 9 9 10 9 9 9 10 9 9 9 10 10 10 9 9 9 8 8 8 9 9 9 9 10 10 10 11 11 12 12 12 12 13 14 14 14 14
7 8 8 8 8 8 9 9 9 10 9 10 9 9 9 9 9 9 9 9 9 9 9 9 9 9 9 9 9 9 10 10 10 11 12 12 12 12 13 14 13 14 14
7 7 8 8 8 8 8 8 9 10 9 9 9 9 8 9 9 9 9 9 10 10 10 10 10 10 10 10 10 10 10 11 11 11 11 11 11 12 12 13 14 14 14
7 7 7 7 7 8 8 8 8 8 8 8 9 8 8 9 9 9 9 10 10 10 10 11 11 11 11 10 10 10 10 10 10 11 11 11 11 11 12 12 13 13 14
6 7 7 7 7 7 7 7 7 7 7 8 8 8 9 9 9 9 8 9 10 10 10 10 10 10 10 10 10 10 11 11 11 11 11 11 11 12 12 13 13 13 14
5 5 6 6 6 6 6 6 6 6 7 7 8 8 9 9 9 8 8 9 10 10 10 10 9 9 9 9 10 10 11 11 12 12 12 12 12 12 13 13 13 14 14
4 3 4 4 4 5 5 5 6 6 7 7 7 8 8 8 8 8 8 8 9 9 10 10 10 10 10 10 11 11 11 11 11 12 13 13 13 13 13 13 14 15 15
3 3 3 3 3 4 5 5 5 6 6 6 7 7 7 7 7 7 7 7 8 8 8 9 9 10 10 10 11 11 11 11 12 13 13 14 14 13 14 14 15 15 16
2 3 2 2 3 4 4 4 4 4 4 5 5 5 6 5 6 6 6 6 7 7 7 8 8 9 9 10 11 11 11 12 12 12 12 13 13 14 14 15 16 16 16
2 2 3 2 2 3 3 4 4 4 4 4 5 5 5 6 6 5 6 6 7 7 7 8 8 9 9 10 11 11 12 12 12 13 13 13 14 15 15 16 17 17 17
2 3 3 3 3 3 3 4 4 4 4 4 5 5 5 5 5 6 7 7 8 8 8 8 9 9 9 10 11 11 12 12 12 13 13 14 15 15 16 16 17 17 18
3 3 4 4 3 3 3 4 4 5 5 5 5 6 6 6 5 6 7 8 8 9 9 9 9 9 10 10 11 11 12 12 12 13 14 15 15 16 16 16 17 17 18
3 3 4 4 4 4 4 4 5 5 4 4 5 5 6 6 6 6 7 8 8 9 9 9 9 10 10 10 11 12 12 13 13 14 15 15 16 16 16 17 18 18 18
5 4 4 4 4 4 4 4 4 4 4 5 5 6 6 6 7 7 8 9 9 9 9 9 10 11 11 11 12 12 13 14 14 14 15 15 16 17 18 18 19 19 19
5 5 5 5 5 5 5 4 5 5 6 7 7 7 6 7 7 8 9 9 9 9 10 10 10 11 11 11 12 13 13 14 14 15 15 16 17 17 19 19 20 20 21
5 5 5 5 5 6 6 6 6 6 7 7 7 7 7 7 8 8 9 9 10 10 10 11 11 11 12 13 13 14 15 15 16 16 17 18 19 19 20 21 21 22 22
6 6 6 6 7 7 7 8 8 7 7 8 8 8 8 8 9 9 9 10 10 11 11 12 12 13 14 15 15 16 16 16 17 18 19 20 20 21 22 22 23 23 24
7 6 6 7 8 8 8 7 7 8 8 8 8 8 8 9 9 10 10 11 11 11 12 13 14 15 16 16 16 17 17 18 19 20 20 21 22 22 23 24 24 25 25
7 7 7 8 8 7 7 7 7 8 9 8 9 9 10 10 10 11 11 11 12 12 13 14 15 16 17 17 18 19 19 20 21 21 22 23 23 24 24 25 25 26 26
8 8 8 8 8 7 7 8 8 8 8 9 9 10 11 11 11 11 12 13 13 14 15 15 16 17 18 19 20 21 21 22 22 23 24 24 25 25 25 26 27 28 28
9 9 9 8 8 8 8 8 9 9 9 10 10 11 12 12 12 13 14 14 14 15 16 17 18 19 20 20 21 22 23 23 24 24 25 26 26 27 27 27 28 29 29
10 9 9 9 9 9 9 9 10 10 11 12 12 12 13 13 14 14 15 16 16 17 18 19 19 20 21 21 22 23 24 25 26 27 28 28 28 28 28 29 29 29 30
11 10 10 10 10 10 11 11 11 12 13 13 14 14 14 14 15 16 16 17 18 19 19 19 20 21 22 22 24 25 25 26 27 28 28 29 29 29 29 29 29 30 31
13 13 13 13 13 13 14 14 14 14 14 15 15 15 15 15 16 16 17 18 19 20 21 21 22 23 23 24 25 26 26 27 28 29 29 30 29 30 30 30 31 31 32
14 14 14 14 15 15 15 16 16 16 16 16 16 16 16 17 17 18 19 20 21 22 23 23 24 24 24 25 26 27 27 28 29 29 29 30 31 31 31 31 31 32 32
Wind_Direction
281 272 267 265 262 261 261 259 257 255 257 255 253 250 248 248 245 246 246 243 246 247 248 248 252 254 254 255 254 259 261 262 262 262 263 267 268 269 267 262 261 262 262
279 272 266 266 263 259 258 259 258 258 256 255 253 252 252 250 247 249 249 246 246 246 247 250 255 254 256 256 255 259 261 262 260 261 262 266 268 270 266 264 264 264 266
278 272 267 265 263 261 262 260 257 255 252 253 251 248 249 253 254 250 250 250 249 247 248 251 256 258 258 257 257 258 262 262 262 264 265 266 270 272 269 267 268 268 269
278 274 271 268 261 261 260 259 258 257 256 253 250 245 244 247 250 251 254 253 249 247 250 252 256 261 260 260 259 260 262 264 266 268 269 269 270 271 271 270 272 272 272
280 274 270 269 263 260 260 259 257 256 254 250 245 241 243 246 250 252 252 251 250 247 249 253 258 262 263 263 262 262 263 265 268 270 269 269 269 270 271 273 275 274 274
275 269 266 260 258 258 256 258 260 257 254 246 243 243 247 249 251 251 250 250 250 251 255 262 261 260 261 262 264 264 265 268 271 270 270 271 272 272 272 274 275 275 275
274 267 256 253 252 247 250 253 257 255 248 245 244 245 247 248 251 249 248 248 251 256 260 263 265 261 261 264 265 267 270 272 273 274 273 273 275 276 276 274 274 274 275
269 268 256 246 240 239 247 258 259 254 249 245 244 248 250 252 250 247 249 251 253 259 264 267 267 264 265 270 267 270 271 271 273 275 273 274 276 277 277 277 276 275 276
273 272 262 242 239 244 253 263 270 262 252 246 249 253 253 255 252 250 252 258 262 264 267 269 269 266 266 267 268 271 271 271 272 274 275 276 276 276 277 278 278 277 278
283 278 271 266 258 256 255 260 268 265 252 246 251 257 259 257 247 251 254 260 264 267 268 265 265 265 266 267 267 271 273 274 276 276 278 278 278 278 279 282 280 279 279
296 290 286 289 279 266 264 265 264 267 267 265 264 266 269 258 246 250 258 262 263 267 269 266 266 270 271 270 271 273 274 276 277 276 277 279 280 281 281 282 282 282 282
306 306 293 287 285 267 263 265 264 269 278 277 274 272 271 258 253 253 256 264 268 271 272 271 272 276 278 280 278 276 275 276 277 277 278 279 281 283 282 283 284 285 286
298 292 290 287 284 281 272 269 272 272 278 275 274 274 274 270 273 272 266 266 268 269 272 272 273 277 280 282 285 285 285 284 283 281 280 281 284 287 287 288 289 289 289
316 299 285 280 279 281 282 283 279 278 280 277 274 273 277 278 282 286 279 275 272 272 273 275 277 280 282 285 287 289 290 289 288 287 286 286 288 288 289 290 290 291 290
299 290 274 279 277 278 280 278 277 278 283 288 280 278 279 279 285 288 284 279 278 280 280 280 282 283 283 285 285 289 291 294 294 294 291 291 290 289 288 288 289 289 289
292 280 274 276 278 275 275 275 278 278 283 288 283 278 278 280 283 285 284 280 277 278 280 283 286 289 291 290 290 294 296 296 296 296 295 294 293 291 289 289 290 289 288
293 284 274 270 274 276 275 272 276 280 281 286 284 280 278 278 281 285 285 283 281 283 286 289 290 291 292 290 290 295 296 296 296 296 296 295 293 293 292 292 291 290 291
285 283 277 274 275 277 278 274 268 270 276 279 281 282 281 280 281 285 288 289 289 290 289 289 289 291 292 293 292 294 295 296 297 298 297 296 294 294 294 293 292 292 292
285 284 279 277 278 279 282 277 267 270 276 278 279 281 282 283 284 287 288 290 292 292 290 290 291 292 292 293 293 294 295 296 297 297 297 297 296 295 294 293 292 293 292
287 285 282 282 282 281 282 277 275 278 279 278 279 280 282 284 285 288 289 290 292 291 291 292 293 293 293 295 295 295 295 296 296 296 296 296 296 295 295 294 294 294 292
284 281 280 281 283 282 282 280 280 282 282 282 283 284 284 285 287 288 290 291 292 292 291 292 294 294 295 296 296 295 296 296 297 297 296 296 295 295 294 294 294 293 292
280 279 279 277 276 276 276 278 280 283 285 285 286 288 287 287 288 289 289 291 292 294 294 294 294 295 296 296 295 295 296 296 297 297 297 296 296 296 296 296 296 295 295
279 275 273 273 273 274 276 279 281 282 284 285 286 288 288 287 288 290 290 292 293 294 296 296 296 296 295 295 295 296 296 296 297 297 297 297 297 297 296 296 296 296 296
275 274 272 271 273 275 276 279 281 284 286 287 287 289 289 287 288 290 290 291 293 294 296 296 296 297 297 296 296 297 298 298 298 298 298 297 297 298 298 297 298 298 297
274 273 272 271 271 272 274 278 280 284 286 287 287 287 287 288 290 291 291 292 294 297 298 297 297 298 300 299 299 299 299 299 299 299 298 298 298 297 297 298 298 299 299
274 274 271 270 273 275 276 278 281 282 284 286 287 287 288 289 290 292 292 294 296 298 298 298 299 299 300 301 300 300 301 300 300 300 299 299 299 298 297 298 299 298 298
Height
5855 5854 5854 5854 5854 5854 5854 5854 5854 5854 5854 5854 5854 5854 5855 5855 5856 5856 5857 5857 5858 5858 5858 5859 5859 5859 5859 5860 5860 5860 5860 5859 5859 5859 5859 5859 5859 5859 5859 5858 5858 5858 5858
5852 5852 5852 5852 5851 5852 5851 5851 5852 5852 5852 5852 5852 5852 5853 5853 5854 5854 5855 5855 5856 5856 5856 5857 5857 5857 5857 5858 5858 5857 5857 5857 5857 5857 5857 5857 5857 5856 5856 5856 5856 5855 5855
5850 5850 5850 5849 5849 5849 5849 5849 5849 5850 5850 5850 5850 5850 5851 5851 5852 5852 5853 5853 5854 5854 5854 5855 5855 5855 5855 5855 5855 5855 5855 5855 5855 5855 5855 5854 5854 5854 5853 5853 5853 5852 5852
5848 5848 5848 5847 5847 5847 5847 5847 5847 5847 5848 5848 5848 5849 5849 5850 5850 5850 5851 5851 5851 5852 5852 5852 5853 5853 5853 5853 5853 5853 5853 5853 5853 5852 5852 5852 5851 5851 5851 5850 5850 5850 5849
5846 5846 5846 5845 5845 5845 5845 5845 5845 5845 5846 5846 5846 5847 5847 5848 5848 5848 5849 5849 5849 5849 5850 5850 5850 5851 5851 5851 5850 5850 5850 5850 5850 5850 5850 5849 5849 5848 5848 5848 5847 5847 5846
5844 5844 5843 5843 5843 5843 5843 5843 5844 5844 5844 5844 5845 5845 5845 5846 5846 5846 5846 5847 5847 5847 5847 5848 5848 5848 5848 5848 5848 5848 5848 5848 5848 5847 5847 5847 5846 5846 5845 5845 5844 5843 5843
5842 5842 5842 5842 5842 5842 5842 5842 5842 5842 5842 5843 5843 5843 5844 5844 5844 5844 5844 5844 5844 5844 5845 5845 5845 5845 5846 5846 5846 5846 5845 5845 5845 5844 5844 5844 5843 5843 5842 5841 5841 5840 5839
5841 5840 5840 5840 5840 5840 5841 5841 5841 5841 5841 5841 5842 5842 5842 5842 5842 5842 5842 5842 5842 5842 5842 5842 5843 5843 5843 5843 5843 5843 5843 5843 5842 5842 5841 5841 5840 5839 5839 5838 5837 5836 5835
5840 5840 5839 5839 5839 5839 5840 5840 5839 5839 5839 5840 5840 5840 5840 5840 5840 5841 5841 5841 5840 5840 5840 5840 5840 5840 5841 5841 5841 5841 5840 5840 5839 5839 5838 5837 5837 5836 5835 5834 5833 5832 5831
5840 5840 5839 5839 5839 5839 5839 5839 5839 5838 5838 5838 5839 5839 5839 5839 5839 5839 5839 5839 5839 5838 5838 5838 5838 5838 5838 5838 5838 5838 5837 5837 5836 5836 5835 5834 5833 5832 5832 5831 5829 5828 5827
5840 5839 5839 5838 5838 5838 5838 5838 5838 5838 5837 5837 5837 5837 5837 5837 5837 5838 5838 5837 5837 5837 5837 5836 5836 5836 5836 5836 5835 5835 5834 5834 5833 5833 5832 5831 5830 5829 5828 5827 5825 5824 5823
5839 5839 5838 5838 5837 5837 5837 5837 5837 5837 5836 5836 5836 5836 5836 5836 5836 5836 5836 5836 5836 5836 5835 5835 5834 5834 5834 5833 5833 5832 5831 5830 5830 5829 5828 5827 5826 5825 5824 5822 5821 5820 5818
5838 5838 5838 5837 5837 5836 5836 5836 5836 5836 5835 5835 5835 5835 5834 5834 5834 5834 5834 5834 5834 5834 5833 5833 5832 5832 5831 5831 5830 5829 5828 5827 5826 5825 5825 5824 5823 5821 5820 5818 5816 5815 5814
5838 5837 5837 5836 5836 5836 5835 5835 5835 5834 5834 5834 5834 5834 5833 5833 5833 5832 5832 5832 5832 5832 5831 5831 5830 5829 5829 5828 5827 5826 5825 5824 5823 5822 5821 5819 5818 5817 5815 5814 5812 5810 5809
5837 5836 5836 5835 5835 5835 5834 5834 5834 5833 5833 5833 5832 5832 5832 5832 5831 5831 5830 5830 5830 5829 5829 5828 5828 5827 5826 5825 5824 5823 5822 5821 5819 5818 5816 5815 5814 5812 5810 5809 5807 5805 5804
5835 5835 5834 5834 5834 5833 5833 5833 5833 5832 5832 5831 5831 5831 5830 5830 5829 5829 5828 5828 5827 5827 5826 5826 5825 5824 5823 5822 5821 5820 5818 5817 5815 5814 5812 5810 5809 5807 5805 5804 5802 5800 5798
5834 5833 5833 5833 5832 5832 5832 5831 5831 5831 5830 5830 5829 5829 5828 5828 5827 5827 5826 5825 5825 5824 5823 5823 5822 5821 5820 5819 5818 5816 5815 5813 5811 5809 5807 5806 5804 5802 5800 5798 5796 5794 5792
5833 5832 5832 5831 5831 5830 5830 5829 5829 5829 5828 5828 5827 5827 5826 5825 5825 5824 5824 5823 5822 5821 5820 5820 5819 5818 5816 5815 5814 5812 5810 5809 5807 5805 5803 5801 5799 5797 5794 5792 5790 5788 5786
5831 5830 5829 5829 5829 5828 5827 5827 5827 5827 5826 5825 5825 5824 5824 5823 5823 5822 5821 5820 5819 5818 5817 5816 5815 5814 5812 5811 5809 5808 5806 5804 5802 5800 5797 5795 5793 5791 5788 5786 5784 5781 5779
5828 5828 5827 5827 5826 5826 5825 5825 5825 5824 5824 5823 5822 5822 5821 5821 5820 5819 5818 5817 5816 5815 5814 5813 5811 5810 5808 5806 5805 5803 5801 5799 5796 5794 5792 5789 5787 5784 5782 5779 5777 5774 5771
5826 5826 5825 5825 5824 5824 5823 5823 5822 5822 5821 5821 5820 5819 5819 5818 5817 5816 5815 5814 5813 5811 5810 5808 5807 5805 5803 5801 5799 5797 5795 5793 5790 5788 5786 5783 5780 5778 5775 5772 5769 5766 5764
5824 5823 5823 5822 5822 5821 5821 5820 5820 5819 5818 5818 5817 5816 5815 5814 5813 5812 5811 5810 5809 5807 5806 5804 5802 5800 5798 5796 5794 5791 5789 5787 5784 5782 5779 5776 5773 5770 5767 5764 5761 5758 5755
5821 5821 5820 5820 5819 5819 5818 5818 5817 5816 5816 5815 5814 5813 5812 5811 5810 5808 5807 5806 5804 5802 5801 5799 5797 5794 5792 5790 5788 5785 5782 5780 5777 5774 5771 5768 5765 5762 5759 5756 5753 5750 5746
5818 5817 5817 5817 5816 5816 5815 5815 5814 5813 5812 5811 5810 5809 5808 5807 5806 5804 5803 5801 5799 5797 5795 5793 5791 5789 5786 5783 5781 5778 5775 5773 5770 5767 5763 5760 5757 5754 5750 5747 5744 5741 5737
5814 5814 5813 5813 5813 5812 5812 5811 5810 5809 5808 5807 5806 5805 5804 5803 5801 5800 5798 5796 5794 5792 5789 5787 5785 5782 5779 5776 5773 5771 5768 5765 5762 5759 5755 5752 5749 5745 5742 5738 5735 5731 5728
5810 5810 5809 5809 5808 5808 5807 5806 5806 5805 5804 5803 5802 5801 5799 5798 5796 5794 5793 5791 5789 5786 5784 5781 5778 5775 5772 5769 5766 5763 5760 5757 5754 5751 5747 5743 5740 5736 5733 5730 5726 5722 5719